QPF
0.00 0.00 0.00 0.00 0.00 0.00 0.00 0.00 0.00 0.00 0.00 0.00 0.00 0.00 0.00 0.00 0.00 0.00 0.00 0.00 0.00 0.00 0.00 0.00 0.00 0.00 0.00 0.00 0.00 0.00 0.00 0.00 0.00 0.00 0.03 0.00 0.00 0.00 0.00 0.00 0.00 0.00 0.00 0.00 0.00
0.00 0.00 0.00 0.00 0.00 0.00 0.00 0.00 0.00 0.00 0.00 0.00 0.00 0.00 0.00 0.00 0.00 0.00 0.00 0.00 0.00 0.00 0.00 0.00 0.00 0.00 0.00 0.00 0.00 0.00 0.00 0.00 0.00 0.00 0.00 0.00 0.00 0.00 0.00 0.00 0.00 0.00 0.00 0.00 0.00
0.00 0.00 0.00 0.00 0.00 0.00 0.00 0.00 0.00 0.00 0.00 0.00 0.00 0.00 0.00 0.00 0.00 0.00 0.00 0.01 0.00 0.00 0.00 0.00 0.00 0.00 0.00 0.00 0.00 0.00 0.00 0.00 0.00 0.00 0.00 0.00 0.00 0.00 0.00 0.04 0.00 0.00 0.00 0.00 0.00
0.00 0.00 0.00 0.00 0.00 0.00 0.00 0.00 0.00 0.00 0.00 0.00 0.00 0.00 0.00 0.00 0.00 0.04 0.01 0.00 0.00 0.00 0.00 0.00 0.00 0.00 0.00 0.00 0.00 0.00 0.00 0.00 0.00 0.00 0.00 0.00 0.00 0.00 0.00 0.00 0.00 0.00 0.00 0.00 0.00
0.00 0.00 0.00 0.00 0.00 0.00 0.00 0.00 0.00 0.00 0.00 0.00 0.00 0.00 0.00 0.00 0.00 0.05 0.00 0.00 0.00 0.00 0.00 0.00 0.00 0.00 0.00 0.00 0.00 0.00 0.00 0.00 0.00 0.00 0.00 0.00 0.00 0.00 0.00 0.00 0.02 0.00 0.00 0.00 0.00
0.00 0.00 0.00 0.00 0.00 0.00 0.00 0.00 0.00 0.00 0.00 0.00 0.00 0.00 0.00 0.00 0.00 0.01 0.00 0.00 0.00 0.00 0.00 0.00 0.00 0.00 0.00 0.00 0.00 0.00 0.00 0.00 0.00 0.00 0.00 0.00 0.00 0.00 0.01 0.00 0.00 0.00 0.00 0.00 0.00
0.00 0.00 0.00 0.00 0.00 0.00 0.00 0.00 0.00 0.00 0.00 0.00 0.00 0.00 0.00 0.00 0.01 0.01 0.00 0.00 0.00 0.00 0.00 0.00 0.00 0.00 0.00 0.00 0.00 0.00 0.00 0.00 0.00 0.00 0.00 0.00 0.00 0.00 0.00 0.00 0.00 0.00 0.00 0.00 0.00
0.00 0.00 0.00 0.00 0.00 0.00 0.00 0.00 0.00 0.00 0.00 0.00 0.00 0.00 0.00 0.00 0.00 0.01 0.03 0.00 0.00 0.00 0.00 0.01 0.00 0.00 0.00 0.00 0.00 0.00 0.00 0.00 0.00 0.00 0.00 0.00 0.00 0.00 0.00 0.00 0.00 0.01 0.01 0.01 0.00
0.00 0.00 0.00 0.00 0.00 0.00 0.00 0.00 0.00 0.00 0.00 0.00 0.00 0.00 0.00 0.00 0.00 0.00 0.02 0.00 0.00 0.00 0.00 0.01 0.00 0.00 0.00 0.00 0.00 0.00 0.00 0.00 0.00 0.00 0.00 0.00 0.00 0.00 0.00 0.00 0.00 0.01 0.01 0.00 0.00
0.00 0.00 0.00 0.00 0.00 0.00 0.00 0.00 0.00 0.00 0.00 0.00 0.00 0.00 0.00 0.00 0.00 0.00 0.00 0.00 0.00 0.00 0.00 0.00 0.00 0.00 0.00 0.00 0.00 0.00 0.00 0.00 0.00 0.00 0.00 0.00 0.00 0.00 0.00 0.00 0.00 0.00 0.00 0.00 0.00
0.00 0.00 0.00 0.00 0.00 0.00 0.00 0.00 0.00 0.00 0.00 0.00 0.00 0.00 0.00 0.00 0.00 0.00 0.00 0.00 0.00 0.00 0.00 0.00 0.00 0.00 0.00 0.00 0.00 0.00 0.00 0.00 0.00 0.00 0.00 0.00 0.00 0.00 0.00 0.00 0.00 0.00 0.00 0.00 0.00
0.00 0.00 0.00 0.00 0.00 0.00 0.00 0.00 0.00 0.00 0.00 0.00 0.00 0.00 0.00 0.00 0.00 0.00 0.00 0.00 0.00 0.00 0.00 0.00 0.00 0.00 0.00 0.00 0.00 0.00 0.00 0.00 0.00 0.00 0.00 0.00 0.00 0.00 0.00 0.00 0.00 0.00 0.00 0.00 0.00
0.00 0.00 0.00 0.00 0.00 0.00 0.00 0.00 0.00 0.00 0.00 0.00 0.00 0.00 0.00 0.00 0.00 0.00 0.00 0.00 0.00 0.00 0.00 0.00 0.00 0.00 0.00 0.00 0.00 0.00 0.00 0.00 0.00 0.00 0.00 0.00 0.00 0.00 0.00 0.00 0.00 0.00 0.00 0.00 0.00
0.00 0.00 0.00 0.00 0.00 0.00 0.00 0.00 0.00 0.00 0.00 0.00 0.00 0.00 0.00 0.00 0.00 0.00 0.00 0.00 0.00 0.00 0.00 0.00 0.00 0.00 0.00 0.00 0.00 0.00 0.00 0.00 0.00 0.00 0.00 0.00 0.00 0.00 0.00 0.00 0.00 0.00 0.00 0.00 0.00
0.00 0.00 0.00 0.00 0.00 0.00 0.00 0.00 0.00 0.00 0.00 0.00 0.00 0.00 0.00 0.00 0.00 0.00 0.00 0.00 0.00 0.00 0.00 0.00 0.00 0.00 0.00 0.00 0.00 0.00 0.00 0.00 0.00 0.00 0.00 0.00 0.00 0.00 0.00 0.00 0.00 0.00 0.00 0.00 0.00
0.00 0.00 0.00 0.00 0.00 0.00 0.00 0.00 0.00 0.00 0.00 0.00 0.00 0.00 0.00 0.00 0.00 0.00 0.00 0.00 0.00 0.00 0.00 0.00 0.00 0.00 0.00 0.00 0.00 0.00 0.00 0.00 0.00 0.00 0.00 0.00 0.00 0.00 0.00 0.00 0.00 0.00 0.00 0.00 0.00
0.00 0.00 0.00 0.00 0.00 0.00 0.00 0.00 0.00 0.00 0.00 0.00 0.00 0.00 0.00 0.00 0.00 0.00 0.00 0.00 0.00 0.00 0.00 0.00 0.00 0.00 0.00 0.00 0.00 0.00 0.00 0.00 0.00 0.00 0.00 0.00 0.00 0.00 0.00 0.00 0.00 0.00 0.00 0.00 0.00
0.00 0.00 0.00 0.00 0.00 0.00 0.00 0.00 0.00 0.00 0.00 0.00 0.00 0.00 0.00 0.00 0.00 0.00 0.00 0.00 0.00 0.00 0.00 0.00 0.00 0.00 0.00 0.00 0.00 0.00 0.00 0.00 0.00 0.00 0.00 0.00 0.00 0.00 0.00 0.00 0.00 0.00 0.00 0.00 0.00
0.00 0.00 0.00 0.00 0.00 0.00 0.00 0.00 0.00 0.00 0.00 0.00 0.00 0.00 0.00 0.00 0.00 0.00 0.00 0.00 0.00 0.00 0.00 0.00 0.00 0.00 0.00 0.00 0.00 0.00 0.00 0.00 0.00 0.00 0.00 0.00 0.00 0.00 0.00 0.00 0.00 0.00 0.00 0.00 0.00
0.00 0.00 0.00 0.00 0.00 0.00 0.00 0.00 0.00 0.00 0.00 0.00 0.00 0.00 0.00 0.00 0.00 0.00 0.00 0.00 0.00 0.00 0.00 0.00 0.00 0.00 0.00 0.00 0.00 0.00 0.00 0.00 0.00 0.00 0.00 0.00 0.00 0.00 0.00 0.00 0.00 0.00 0.00 0.00 0.00
0.00 0.00 0.00 0.00 0.00 0.00 0.00 0.00 0.00 0.00 0.00 0.00 0.00 0.00 0.00 0.00 0.00 0.00 0.00 0.00 0.00 0.00 0.00 0.00 0.00 0.00 0.00 0.00 0.00 0.00 0.00 0.00 0.00 0.00 0.00 0.00 0.00 0.00 0.00 0.00 0.00 0.00 0.00 0.00 0.00
0.00 0.00 0.00 0.00 0.00 0.00 0.00 0.00 0.00 0.00 0.00 0.00 0.00 0.00 0.00 0.00 0.00 0.00 0.00 0.00 0.00 0.00 0.00 0.00 0.00 0.00 0.00 0.00 0.00 0.00 0.00 0.00 0.00 0.00 0.00 0.00 0.00 0.00 0.00 0.00 0.00 0.00 0.00 0.00 0.00
0.00 0.00 0.00 0.00 0.00 0.00 0.00 0.00 0.00 0.00 0.00 0.00 0.00 0.00 0.00 0.00 0.00 0.00 0.00 0.00 0.00 0.00 0.00 0.00 0.00 0.00 0.00 0.00 0.00 0.00 0.00 0.00 0.00 0.00 0.00 0.00 0.00 0.00 0.00 0.00 0.00 0.00 0.00 0.00 0.00
0.00 0.00 0.00 0.00 0.00 0.00 0.00 0.00 0.00 0.00 0.00 0.00 0.00 0.00 0.00 0.00 0.00 0.00 0.00 0.00 0.00 0.00 0.00 0.00 0.00 0.00 0.00 0.00 0.00 0.00 0.00 0.00 0.00 0.00 0.00 0.00 0.00 0.00 0.00 0.00 0.00 0.00 0.00 0.00 0.00
0.00 0.00 0.00 0.00 0.00 0.00 0.00 0.00 0.00 0.00 0.00 0.00 0.00 0.00 0.00 0.00 0.00 0.00 0.00 0.00 0.00 0.00 0.00 0.00 0.00 0.00 0.00 0.00 0.00 0.00 0.00 0.00 0.00 0.00 0.00 0.00 0.00 0.00 0.00 0.00 0.00 0.00 0.00 0.00 0.00
0.00 0.00 0.00 0.00 0.00 0.00 0.00 0.00 0.00 0.00 0.00 0.00 0.00 0.00 0.00 0.00 0.00 0.00 0.00 0.00 0.00 0.00 0.00 0.00 0.00 0.00 0.00 0.00 0.00 0.00 0.00 0.00 0.00 0.00 0.00 0.00 0.00 0.00 0.00 0.00 0.00 0.00 0.00 0.00 0.00
0.00 0.00 0.00 0.00 0.00 0.00 0.00 0.00 0.00 0.00 0.00 0.00 0.00 0.00 0.00 0.00 0.00 0.00 0.00 0.00 0.00 0.00 0.00 0.00 0.00 0.00 0.00 0.00 0.00 0.00 0.00 0.00 0.00 0.00 0.00 0.00 0.00 0.00 0.00 0.00 0.00 0.00 0.00 0.00 0.00
MSLP
1013.55 1013.22 1012.94 1012.69 1012.50 1012.32 1012.14 1012.06 1012.02 1011.98 1011.97 1011.85 1011.78 1011.67 1011.50 1011.22 1010.93 1010.30 1008.05 1007.16 1007.44 1008.06 1008.04 1007.91 1008.08 1008.17 1008.09 1007.35 1007.00 1006.50 1004.23 1003.42 1003.83 1003.87 1004.85 1005.64 1005.92 1006.84 1007.01 1007.49 1007.80 1008.42 1008.58 1010.12 1011.69
1013.60 1013.26 1013.00 1012.73 1012.48 1012.23 1012.10 1012.04 1011.98 1011.97 1011.87 1011.81 1011.68 1011.60 1011.41 1011.11 1009.73 1007.98 1006.67 1007.19 1007.77 1007.90 1007.51 1007.52 1007.62 1007.71 1007.16 1006.90 1006.40 1005.65 1003.72 1004.07 1004.34 1004.26 1004.31 1005.17 1005.56 1006.54 1006.94 1007.33 1008.10 1008.54 1009.09 1010.67 1012.23
1013.67 1013.33 1013.04 1012.73 1012.46 1012.20 1012.01 1011.94 1011.95 1011.92 1011.83 1011.77 1011.61 1011.47 1011.17 1010.82 1008.51 1006.11 1006.58 1007.34 1007.83 1007.69 1007.32 1007.83 1008.10 1008.06 1007.19 1006.76 1006.15 1005.11 1004.27 1004.51 1004.47 1004.46 1004.40 1004.82 1005.49 1006.12 1006.64 1007.02 1007.72 1008.47 1009.53 1010.82 1012.02
1013.67 1013.36 1013.02 1012.68 1012.37 1012.12 1011.95 1011.92 1011.89 1011.84 1011.78 1011.67 1011.54 1011.24 1011.00 1009.75 1007.04 1006.76 1007.23 1007.69 1007.81 1007.07 1007.33 1007.48 1007.97 1007.53 1006.45 1005.67 1005.53 1004.87 1004.85 1004.71 1004.62 1004.73 1004.47 1004.88 1005.47 1006.07 1006.41 1007.01 1007.66 1008.76 1009.79 1010.60 1011.58
1013.64 1013.32 1012.96 1012.64 1012.29 1012.08 1011.89 1011.82 1011.82 1011.80 1011.73 1011.62 1011.42 1010.99 1010.49 1008.14 1006.42 1007.11 1007.66 1007.98 1007.81 1007.32 1007.14 1006.87 1006.52 1006.25 1005.75 1005.48 1005.18 1004.71 1004.56 1004.64 1004.73 1004.76 1004.60 1005.23 1005.68 1006.33 1007.27 1007.80 1008.31 1009.29 1010.22 1010.73 1011.09
1013.56 1013.23 1012.93 1012.59 1012.27 1011.99 1011.84 1011.78 1011.77 1011.76 1011.73 1011.55 1011.17 1011.00 1009.21 1006.67 1006.66 1007.18 1007.14 1007.47 1007.27 1007.10 1006.81 1006.88 1006.32 1006.32 1005.83 1005.17 1004.80 1004.58 1004.54 1004.34 1004.27 1004.64 1004.98 1005.41 1006.21 1006.58 1008.06 1008.60 1009.09 1010.08 1010.67 1011.15 1011.21
1013.50 1013.11 1012.84 1012.55 1012.21 1011.92 1011.74 1011.70 1011.67 1011.71 1011.65 1011.42 1011.01 1010.42 1007.93 1006.90 1006.83 1006.92 1007.41 1007.34 1006.98 1006.77 1006.40 1006.54 1006.32 1006.15 1005.35 1004.44 1004.66 1004.41 1003.73 1003.69 1003.91 1004.44 1004.80 1005.40 1006.11 1007.29 1008.36 1008.83 1009.65 1010.67 1011.09 1011.66 1011.69
1013.45 1012.99 1012.72 1012.47 1012.15 1011.85 1011.65 1011.61 1011.60 1011.65 1011.46 1011.23 1010.98 1009.63 1006.63 1006.94 1006.82 1007.08 1006.86 1006.95 1007.10 1006.87 1006.46 1006.59 1006.54 1005.87 1005.23 1004.45 1003.96 1003.32 1003.27 1002.72 1003.81 1004.23 1004.85 1005.12 1005.93 1007.58 1008.45 1008.93 1009.69 1010.82 1011.27 1011.41 1011.31
1013.38 1012.91 1012.64 1012.36 1012.09 1011.76 1011.54 1011.44 1011.40 1011.36 1011.22 1011.10 1010.25 1008.42 1006.72 1007.44 1006.70 1006.71 1007.03 1006.49 1006.93 1006.86 1006.53 1006.64 1006.05 1005.16 1004.35 1003.39 1002.46 1002.40 1001.66 1002.16 1003.25 1003.85 1004.39 1004.70 1005.77 1007.45 1008.24 1008.68 1009.32 1010.48 1010.69 1011.03 1011.27
1013.28 1012.85 1012.52 1012.29 1012.02 1011.66 1011.30 1011.00 1010.97 1011.03 1010.95 1010.32 1009.14 1007.64 1006.57 1005.67 1006.10 1006.43 1006.74 1006.74 1006.79 1006.82 1006.60 1006.15 1005.35 1004.42 1003.02 1001.95 1001.32 1001.91 1001.62 1001.89 1002.21 1003.21 1003.78 1004.32 1005.34 1006.95 1007.84 1008.31 1008.84 1009.49 1010.27 1010.56 1011.10
1013.24 1012.68 1012.36 1012.16 1011.93 1011.62 1011.28 1010.19 1009.98 1009.15 1008.39 1006.12 1005.48 1005.08 1004.65 1005.33 1005.79 1006.11 1006.79 1006.90 1006.66 1006.97 1005.43 1005.29 1004.14 1002.69 1002.10 1002.23 1002.41 1002.16 1001.84 1001.69 1002.07 1002.80 1003.21 1003.74 1004.80 1006.28 1007.27 1007.86 1008.44 1008.75 1009.38 1009.98 1010.51
1013.08 1012.55 1012.14 1011.97 1011.77 1011.54 1010.78 1007.83 1006.01 1005.85 1005.12 1005.49 1005.38 1004.84 1004.73 1004.68 1004.98 1005.64 1006.61 1006.31 1005.72 1005.44 1005.02 1004.54 1002.99 1002.64 1002.85 1002.29 1002.18 1001.84 1001.45 1001.23 1001.90 1002.52 1002.90 1003.44 1004.16 1005.64 1006.63 1007.17 1007.81 1008.28 1008.72 1009.16 1009.98
1012.86 1012.34 1011.96 1011.73 1011.44 1011.12 1008.67 1006.58 1006.08 1005.55 1003.93 1004.44 1004.39 1004.02 1004.21 1004.46 1004.10 1005.02 1005.75 1005.77 1005.46 1004.76 1004.09 1003.47 1002.72 1002.13 1001.68 1001.33 1000.61 1000.61 1000.33 1000.75 1001.07 1002.13 1002.41 1002.81 1003.39 1004.80 1005.89 1006.55 1007.14 1007.76 1008.22 1008.57 1009.09
1012.54 1012.07 1011.77 1011.59 1011.62 1008.81 1007.29 1006.19 1006.08 1005.65 1003.22 1003.36 1003.44 1003.37 1003.90 1003.71 1003.95 1004.58 1004.97 1004.96 1004.95 1004.41 1003.63 1002.96 1002.24 1002.02 1001.33 1000.53 1000.44 999.58 1000.79 1000.77 1000.91 1000.93 1000.21 1001.79 1000.81 1002.90 1004.22 1005.41 1006.23 1006.72 1007.40 1007.93 1008.54
1012.17 1011.74 1011.53 1011.60 1009.57 1007.58 1006.32 1006.10 1005.83 1005.35 1001.72 1002.00 1002.50 1003.31 1003.19 1002.96 1003.18 1004.23 1004.75 1004.32 1004.29 1003.43 1003.51 1001.85 1001.66 1001.51 1000.90 1000.52 1000.79 1000.71 1000.93 1000.43 1000.21 999.90 1000.14 1000.71 1000.77 1001.33 1002.67 1003.76 1004.57 1005.45 1006.24 1007.14 1008.05
1011.64 1011.36 1011.25 1010.73 1009.63 1006.90 1006.55 1006.08 1005.29 1003.29 1000.88 1001.22 1001.80 1002.21 1002.40 1002.31 1002.53 1003.72 1004.33 1004.77 1003.67 1003.33 1002.66 1001.79 1001.49 1001.25 1000.55 1000.49 1000.56 1000.84 1000.38 1000.05 999.78 999.19 998.32 999.33 999.76 999.16 1000.83 1001.56 1002.83 1004.10 1005.03 1006.12 1007.00
1010.93 1010.82 1010.89 1008.90 1006.60 1006.72 1006.41 1005.36 1002.98 1000.55 1000.66 1000.65 1000.72 1000.99 1000.96 1001.14 1001.64 1002.41 1002.98 1003.19 1002.51 1001.94 1000.85 1000.22 999.73 999.88 1000.43 999.97 1000.15 1000.08 999.07 997.92 997.68 997.43 997.40 998.97 999.19 998.50 999.80 1000.47 1001.24 1002.56 1003.88 1005.09 1006.14
1010.01 1009.82 1009.14 1008.19 1007.35 1006.99 1005.81 1003.77 1001.15 1000.13 999.56 999.63 999.88 1000.21 1000.05 1000.16 1000.63 1001.04 1001.34 1001.29 1001.43 1000.90 1000.14 999.46 998.46 999.07 999.45 999.13 998.46 998.94 997.83 997.28 996.99 996.60 996.81 998.53 997.70 998.59 999.64 1000.15 1000.76 1001.88 1003.05 1004.16 1005.11
1009.34 1008.26 1008.02 1006.94 1007.42 1007.02 1004.62 1001.69 999.93 999.44 999.43 999.28 999.62 999.52 999.50 999.74 999.90 1000.10 1000.18 999.83 999.83 1000.37 999.99 999.02 998.71 998.92 999.09 998.80 998.82 998.27 998.27 997.66 996.85 997.27 997.00 996.82 997.20 999.11 999.88 1000.36 1000.87 1001.41 1002.44 1003.57 1004.45
1007.40 1006.29 1006.29 1006.84 1007.01 1006.00 1003.50 1000.99 1000.32 1000.18 999.92 999.49 998.33 998.69 998.40 998.83 999.62 999.41 999.13 998.93 999.00 999.23 999.65 998.99 998.76 998.38 998.76 998.88 998.91 998.38 998.08 997.19 996.62 996.33 996.33 996.08 997.06 997.32 999.33 1000.13 1000.94 1001.31 1002.11 1003.14 1004.01
1006.89 1004.71 1006.67 1006.75 1006.35 1004.50 1001.98 1000.61 1000.57 1000.29 1000.12 999.37 998.55 998.36 998.10 998.15 998.62 998.37 998.19 998.22 998.45 998.32 999.12 999.01 998.84 997.99 997.87 997.28 996.89 997.64 997.19 996.91 996.48 996.67 996.14 996.00 996.08 997.49 998.94 999.75 1000.58 1001.51 1002.08 1002.67 1003.52
1005.05 1003.95 1006.04 1006.25 1004.57 1002.96 1001.44 1001.15 1001.34 1000.31 1000.29 999.89 999.58 999.00 998.67 998.57 998.38 998.15 998.07 998.02 998.69 998.63 998.72 998.91 998.05 997.14 996.88 997.18 997.58 997.15 996.31 996.30 995.60 995.78 996.38 996.90 997.00 998.57 999.34 999.71 1000.35 1001.08 1001.83 1002.43 1003.04
1004.66 1004.59 1005.44 1005.22 1002.74 1002.07 1001.87 1001.30 1001.28 1000.86 1000.84 1000.42 999.85 999.77 999.56 999.04 998.93 998.65 998.70 999.05 999.23 999.00 998.54 998.90 998.14 997.05 996.71 996.81 997.39 996.88 996.30 996.10 996.12 996.03 995.93 996.13 996.92 998.64 999.60 999.92 1000.59 1001.17 1001.99 1002.72 1003.24
1005.08 1003.75 1004.21 1004.03 1003.47 1001.71 1001.49 1001.72 1001.51 1002.02 1001.61 1001.46 1000.81 1000.50 1000.06 999.57 999.70 999.14 998.93 999.44 999.68 999.24 999.60 999.22 997.68 996.82 995.60 995.37 995.49 995.94 996.30 996.55 996.19 995.45 995.28 996.01 996.42 997.89 998.96 999.82 1000.70 1001.44 1002.29 1002.96 1003.63
1006.21 1005.72 1005.70 1003.54 1003.57 1002.81 1002.45 1002.68 1002.22 1002.35 1002.37 1002.12 1001.63 1001.63 1001.16 1000.27 1000.10 1000.13 999.97 999.53 999.81 1000.08 999.69 998.96 997.54 997.07 996.40 996.10 996.29 995.79 995.95 996.38 996.49 996.16 995.98 995.78 996.47 996.59 997.90 999.33 1000.44 1001.34 1002.35 1002.89 1003.41
1007.60 1007.18 1006.42 1005.48 1004.80 1003.69 1003.63 1003.76 1003.62 1003.73 1003.48 1002.89 1002.80 1002.68 1002.41 1002.26 1002.66 1001.92 1001.59 1000.44 999.74 999.65 999.31 998.99 998.08 997.46 996.64 996.62 996.63 996.09 996.12 996.27 996.47 996.48 996.62 996.39 996.45 996.84 997.98 999.46 1000.65 1001.43 1002.24 1002.74 1003.26
1010.53 1009.71 1008.38 1006.87 1005.35 1004.61 1005.45 1005.47 1005.27 1005.13 1004.85 1004.67 1004.44 1003.76 1003.16 1004.18 1004.24 1003.59 1002.88 1001.94 1001.18 1000.54 999.17 998.72 998.13 997.49 996.49 996.44 996.52 996.15 995.85 995.97 996.29 996.52 996.66 996.26 996.68 997.53 998.67 999.73 1000.52 1001.30 1002.01 1002.49 1003.02
Thickness
5771 5771 5770 5770 5768 5768 5767 5768 5767 5767 5767 5769 5770 5773 5776 5779 5783 5789 5797 5812 5811 5807 5808 5807 5804 5802 5804 5803 5811 5813 5807 5799 5799 5801 5796 5811 5802 5808 5815 5801 5805 5805 5805 5800 5794
5770 5770 5769 5769 5768 5768 5767 5767 5767 5766 5767 5769 5770 5773 5776 5780 5792 5799 5818 5815 5811 5809 5806 5799 5794 5800 5797 5800 5808 5806 5809 5801 5814 5816 5811 5813 5811 5803 5800 5798 5792 5796 5806 5798 5788
5768 5769 5768 5768 5768 5767 5767 5766 5766 5766 5766 5768 5770 5773 5778 5782 5795 5811 5820 5814 5810 5811 5811 5801 5795 5788 5788 5801 5805 5814 5803 5813 5816 5822 5824 5816 5811 5815 5800 5790 5796 5790 5792 5791 5784
5767 5767 5767 5768 5767 5767 5767 5766 5765 5765 5765 5768 5770 5774 5778 5791 5785 5812 5815 5811 5810 5816 5809 5798 5788 5782 5791 5798 5812 5804 5813 5815 5817 5822 5822 5812 5817 5804 5808 5801 5810 5803 5797 5793 5784
5766 5766 5767 5767 5767 5767 5767 5766 5764 5764 5764 5767 5770 5775 5785 5794 5802 5814 5812 5808 5810 5812 5803 5800 5796 5798 5791 5803 5811 5808 5814 5819 5821 5821 5824 5822 5809 5803 5798 5805 5809 5801 5792 5789 5788
5765 5766 5766 5766 5766 5767 5766 5765 5763 5763 5762 5766 5771 5775 5790 5792 5815 5814 5816 5812 5812 5810 5809 5807 5805 5809 5803 5808 5809 5819 5817 5820 5826 5821 5821 5810 5804 5808 5795 5801 5796 5788 5783 5784 5787
5764 5764 5764 5765 5765 5766 5766 5764 5763 5761 5761 5765 5770 5778 5793 5795 5815 5816 5814 5810 5817 5817 5809 5817 5821 5810 5817 5813 5825 5822 5815 5825 5826 5823 5815 5819 5797 5789 5798 5799 5787 5778 5778 5777 5781
5762 5764 5764 5763 5764 5765 5765 5764 5762 5760 5761 5764 5769 5782 5794 5812 5814 5812 5818 5812 5817 5822 5820 5824 5824 5818 5815 5830 5825 5820 5823 5810 5821 5823 5820 5817 5783 5793 5800 5795 5785 5776 5776 5779 5785
5761 5762 5762 5762 5763 5764 5764 5764 5762 5760 5761 5764 5774 5784 5785 5806 5802 5812 5813 5807 5810 5817 5822 5824 5824 5816 5825 5817 5820 5826 5814 5816 5812 5830 5820 5816 5792 5797 5804 5798 5789 5780 5783 5783 5784
5759 5760 5761 5761 5762 5763 5765 5766 5765 5762 5763 5769 5779 5778 5791 5795 5807 5812 5817 5814 5801 5803 5802 5806 5812 5807 5826 5826 5805 5806 5815 5823 5818 5828 5827 5816 5805 5801 5802 5800 5794 5791 5786 5785 5783
5755 5759 5760 5760 5761 5762 5766 5773 5773 5770 5775 5792 5795 5794 5802 5812 5817 5806 5807 5801 5801 5791 5786 5803 5800 5807 5823 5828 5826 5824 5822 5819 5830 5836 5826 5820 5813 5804 5804 5801 5796 5797 5794 5790 5788
5754 5758 5759 5760 5760 5762 5768 5785 5797 5798 5784 5795 5795 5800 5810 5816 5792 5801 5804 5789 5791 5781 5801 5799 5801 5825 5826 5832 5825 5824 5821 5825 5832 5837 5830 5822 5816 5813 5809 5806 5803 5801 5800 5799 5795
5752 5756 5758 5759 5761 5765 5784 5794 5806 5806 5791 5789 5799 5800 5802 5810 5799 5795 5803 5794 5787 5789 5801 5796 5815 5836 5834 5833 5837 5839 5836 5831 5829 5830 5836 5826 5813 5808 5813 5814 5812 5810 5809 5808 5803
5750 5754 5756 5758 5762 5784 5787 5803 5805 5806 5784 5782 5790 5800 5805 5810 5793 5812 5809 5799 5791 5789 5806 5811 5834 5827 5831 5836 5844 5841 5845 5840 5833 5828 5826 5837 5819 5818 5819 5811 5811 5813 5811 5811 5808
5749 5753 5755 5755 5776 5784 5797 5804 5806 5798 5760 5798 5795 5820 5812 5800 5806 5799 5821 5808 5785 5799 5805 5814 5824 5824 5825 5836 5843 5830 5844 5843 5842 5839 5834 5826 5818 5825 5831 5813 5817 5819 5818 5817 5814
5750 5752 5754 5761 5769 5793 5797 5802 5801 5775 5755 5787 5802 5795 5793 5803 5806 5805 5802 5811 5819 5808 5819 5824 5847 5839 5841 5849 5849 5847 5842 5844 5847 5845 5828 5836 5827 5840 5828 5833 5832 5832 5829 5823 5820
5753 5754 5756 5772 5790 5794 5798 5796 5778 5778 5805 5787 5792 5803 5803 5799 5802 5803 5796 5794 5796 5791 5807 5834 5841 5854 5851 5839 5849 5845 5843 5828 5823 5828 5824 5842 5827 5848 5852 5855 5853 5842 5837 5833 5827
5759 5761 5769 5778 5786 5792 5796 5788 5765 5794 5799 5818 5810 5807 5797 5810 5808 5809 5805 5801 5818 5819 5811 5810 5820 5844 5855 5849 5850 5843 5857 5833 5799 5818 5834 5841 5832 5843 5861 5866 5865 5856 5848 5841 5833
5763 5775 5775 5786 5785 5790 5792 5780 5792 5803 5813 5808 5807 5795 5798 5810 5811 5810 5809 5815 5828 5827 5806 5816 5818 5854 5855 5862 5858 5847 5832 5866 5845 5847 5833 5849 5861 5854 5857 5852 5854 5852 5848 5840 5836
5781 5787 5785 5785 5787 5792 5789 5781 5798 5813 5815 5815 5805 5813 5801 5809 5800 5808 5813 5832 5828 5843 5846 5835 5810 5850 5851 5860 5858 5851 5864 5837 5849 5811 5805 5842 5838 5846 5841 5841 5843 5845 5842 5839 5839
5783 5787 5777 5784 5790 5789 5783 5797 5804 5820 5819 5814 5815 5815 5821 5818 5818 5818 5823 5838 5843 5846 5849 5844 5832 5838 5856 5853 5852 5848 5847 5854 5858 5848 5822 5822 5845 5872 5851 5852 5844 5840 5841 5840 5838
5794 5779 5782 5785 5780 5792 5791 5800 5790 5815 5823 5820 5823 5823 5820 5824 5820 5822 5821 5835 5848 5849 5831 5847 5844 5829 5844 5866 5868 5863 5862 5862 5843 5837 5844 5834 5839 5864 5856 5859 5854 5847 5843 5844 5842
5786 5779 5784 5785 5779 5784 5794 5799 5806 5808 5809 5813 5816 5824 5829 5822 5811 5826 5829 5843 5846 5843 5840 5845 5835 5820 5830 5852 5857 5849 5864 5870 5866 5863 5840 5827 5833 5862 5854 5853 5851 5844 5840 5837 5836
5786 5773 5778 5785 5787 5795 5791 5788 5794 5805 5806 5811 5813 5822 5820 5820 5827 5822 5829 5837 5843 5848 5836 5845 5845 5838 5830 5846 5862 5845 5851 5857 5858 5845 5848 5845 5851 5851 5849 5845 5843 5839 5836 5832 5827
5774 5761 5761 5772 5771 5783 5790 5785 5787 5785 5802 5809 5805 5805 5807 5811 5817 5814 5825 5834 5839 5826 5839 5846 5831 5844 5851 5856 5854 5857 5853 5850 5842 5853 5838 5854 5847 5865 5860 5851 5844 5841 5835 5830 5824
5761 5758 5763 5761 5766 5775 5772 5770 5773 5777 5783 5789 5788 5797 5803 5796 5793 5796 5804 5821 5825 5838 5835 5843 5823 5838 5834 5847 5846 5842 5852 5852 5849 5850 5846 5853 5848 5874 5869 5857 5841 5836 5832 5827 5825
5738 5743 5746 5741 5762 5766 5752 5754 5758 5766 5775 5779 5778 5785 5794 5784 5788 5798 5806 5814 5818 5815 5828 5829 5827 5824 5820 5843 5837 5821 5846 5851 5851 5857 5851 5842 5859 5864 5850 5842 5839 5835 5833 5830 5830